sat.trackr.live / text

‹ back to catalog

STARLINK-3231

NORAD 49744 · 2021-115W

PAYLOAD ACTIVE UNKNOWN

§ Identity

Operator
Country
US
Launch date
2021-12-02
Launch site
AFETR
Launch vehicle
Mass (kg)
RCS (m²)

Purposes: comms

External: N2YO · Heavens-Above · Gunter

§ Orbital elements

Epoch: 2026-09-08T15:02:52.611648Z

Period
94.01 min
Inclination
53.1604°
Eccentricity
0.0000984
Mean motion
15.31707672 rev/d
Perigee alt
470.0 km
Apogee alt
471.4 km
Semi-major
6,848.9 km
B*
3.0665e-5
RAAN
35.0335°
Arg perigee
82.9558°
Mean anomaly
277.1555°
Rev number
26,332

§ Raw data

STARLINK-32311 49744U 21115W   26251.62699782  .00000587  00000+0  30665-4 0  99962 49744  53.1604  35.0335 0000984  82.9558 277.1555 15.31707672263323

JSON: /api/v1/satellites/49744 · /tle

For live sub-satellite position, see the globe view (requires WebGL).

§ Visibility from observer

Set your observer location to see the next 7 days of passes ≥ 10°. The values pass through the URL so the page stays shareable.

No JS? Fill the form by hand. The geolocation button needs JavaScript.